SWA678 KTPA-KDEN

Flight info

Callsign SWA678
Flight time 4h 12m
Altitude 36000
Route ENDED2 LACEN PATOY Q116 JAWJA MGMRY JILLS WFOUR EOS ICT OATHE CLASH5
Aircraft B38M/M-SADE2E3GHIJ4J7P2RWZ/LB1D1

Departure

Time 2026-05-05 20:43
Airport Tampa International Airport (KTPA)

Arrival

Time 2026-05-06 00:55
Airport Denver International Airport (KDEN)
Time Latitude Longitude Altitude Speed Heading
2026-05-05 20:21 27.98220 -82.53123 45 ft 0 kts 271°
2026-05-05 20:33 27.98220 -82.53122 45 ft 1 kts 271°
2026-05-05 20:33 27.98219 -82.53094 45 ft 4 kts 271°
2026-05-05 20:33 27.98218 -82.53069 45 ft 4 kts 269°
2026-05-05 20:34 27.98225 -82.53048 45 ft 4 kts 202°
2026-05-05 20:34 27.98249 -82.53045 43 ft 4 kts 182°
2026-05-05 20:34 27.98256 -82.53045 43 ft 2 kts 182°
2026-05-05 20:37 27.98252 -82.53045 43 ft 2 kts 181°
2026-05-05 20:37 27.98206 -82.53043 42 ft 12 kts 176°
2026-05-05 20:37 27.98130 -82.52993 43 ft 13 kts 75°
2026-05-05 20:38 27.98215 -82.52963 44 ft 15 kts
2026-05-05 20:38 27.98329 -82.52957 43 ft 17 kts 359°
2026-05-05 20:38 27.98456 -82.52956 44 ft 19 kts
2026-05-05 20:38 27.98595 -82.52957 44 ft 21 kts 337°
2026-05-05 20:39 27.98636 -82.53103 45 ft 21 kts 270°
2026-05-05 20:39 27.98643 -82.53265 55 ft 19 kts 272°
2026-05-05 20:39 27.98645 -82.53359 63 ft 16 kts 270°
2026-05-05 20:39 27.98645 -82.53397 66 ft 14 kts 271°
2026-05-05 20:40 27.98770 -82.53949 49 ft 23 kts
2026-05-05 20:40 27.98932 -82.53938 49 ft 24 kts
2026-05-05 20:41 27.99109 -82.53934 49 ft 26 kts
2026-05-05 20:41 27.99289 -82.53931 48 ft 23 kts 358°
2026-05-05 20:41 27.99351 -82.54050 48 ft 18 kts 268°
2026-05-05 20:41 27.99338 -82.54127 44 ft 7 kts 213°
2026-05-05 20:42 27.99315 -82.54134 48 ft 4 kts 184°
2026-05-05 20:42 27.99061 -82.54143 50 ft 78 kts 181°
2026-05-05 20:42 27.98259 -82.54171 53 ft 150 kts 181°
2026-05-05 20:42 27.97031 -82.54201 259 ft 192 kts 181°
2026-05-05 20:43 27.95664 -82.54216 1128 ft 202 kts 181°
2026-05-05 20:43 27.94268 -82.54551 2002 ft 214 kts 203°
2026-05-05 20:43 27.93014 -82.55667 2484 ft 242 kts 233°
2026-05-05 20:43 27.92375 -82.57428 3561 ft 248 kts 261°
2026-05-05 20:44 27.92468 -82.59414 4507 ft 259 kts 286°
2026-05-05 20:44 27.93320 -82.61203 5554 ft 263 kts 311°
2026-05-05 20:44 27.94725 -82.62493 6696 ft 261 kts 330°
2026-05-05 20:44 27.96438 -82.63256 7678 ft 268 kts 345°
2026-05-05 20:45 28.00142 -82.63763 9853 ft 270 kts 352°
2026-05-05 20:45 28.02046 -82.63828 10683 ft 278 kts
2026-05-05 20:45 28.03999 -82.63688 11503 ft 286 kts 356°
2026-05-05 20:46 28.06049 -82.63737 11969 ft 305 kts 354°
2026-05-05 20:46 28.08244 -82.63845 12377 ft 326 kts 354°
2026-05-05 20:46 28.10574 -82.63967 12735 ft 345 kts 354°
2026-05-05 20:46 28.13033 -82.64099 13162 ft 360 kts 354°
2026-05-05 20:47 28.15564 -82.64234 13831 ft 365 kts 354°
2026-05-05 20:47 28.18112 -82.64364 14562 ft 368 kts 354°
2026-05-05 20:47 28.20683 -82.64488 15185 ft 372 kts 354°
2026-05-05 20:47 28.23274 -82.64608 15845 ft 374 kts 354°
2026-05-05 20:48 28.25888 -82.64724 16490 ft 377 kts 354°
2026-05-05 20:48 28.28517 -82.64835 17120 ft 380 kts 354°
2026-05-05 20:48 28.31166 -82.64940 17743 ft 383 kts 354°
2026-05-05 20:48 28.33840 -82.65043 18340 ft 386 kts 354°
2026-05-05 20:49 28.36534 -82.65142 18835 ft 389 kts 354°
2026-05-05 20:49 28.39245 -82.65233 19324 ft 392 kts 354°
2026-05-05 20:49 28.41978 -82.65318 19820 ft 394 kts 354°
2026-05-05 20:49 28.44699 -82.65393 20289 ft 397 kts 353°
2026-05-05 20:50 28.47438 -82.65880 20758 ft 392 kts 337°
2026-05-05 20:50 28.49800 -82.67267 21174 ft 388 kts 321°
2026-05-05 20:50 28.51935 -82.69158 21572 ft 392 kts 324°
2026-05-05 20:50 28.54479 -82.70345 22082 ft 401 kts 342°
2026-05-05 20:51 28.57210 -82.71173 22481 ft 403 kts 338°
2026-05-05 20:51 28.59897 -82.72140 22895 ft 405 kts 338°
2026-05-05 20:51 28.62549 -82.73122 23315 ft 407 kts 337°
2026-05-05 20:51 28.65249 -82.74141 23702 ft 410 kts 337°
2026-05-05 20:52 28.67957 -82.75174 24064 ft 411 kts 336°
2026-05-05 20:52 28.70674 -82.76215 24438 ft 413 kts 336°
2026-05-05 20:52 28.73401 -82.77262 24807 ft 414 kts 336°
2026-05-05 20:52 28.76133 -82.78312 25165 ft 415 kts 336°
2026-05-05 20:53 28.78867 -82.79363 25560 ft 415 kts 336°
2026-05-05 20:53 28.81614 -82.80420 25932 ft 417 kts 336°
2026-05-05 20:53 28.84399 -82.81492 26303 ft 418 kts 336°
2026-05-05 20:53 28.87126 -82.82541 26655 ft 419 kts 336°
2026-05-05 20:54 28.89932 -82.83623 27019 ft 421 kts 336°
2026-05-05 20:54 28.92669 -82.84678 27365 ft 422 kts 336°
2026-05-05 20:54 28.95454 -82.85752 27706 ft 423 kts 336°
2026-05-05 20:54 28.98251 -82.86832 28056 ft 425 kts 336°
2026-05-05 20:55 29.01053 -82.87914 28378 ft 426 kts 336°
2026-05-05 20:55 29.03866 -82.89001 28710 ft 428 kts 336°
2026-05-05 20:55 29.06605 -82.90295 29026 ft 423 kts 326°
2026-05-05 20:55 29.08985 -82.92181 29436 ft 420 kts 322°
2026-05-05 20:56 29.11389 -82.94081 29869 ft 419 kts 322°
2026-05-05 20:56 29.13768 -82.95988 30321 ft 416 kts 322°
2026-05-05 20:56 29.16122 -82.97895 30745 ft 414 kts 322°
2026-05-05 20:56 29.18461 -82.99802 31177 ft 411 kts 322°
2026-05-05 20:57 29.20781 -83.01697 31613 ft 409 kts 322°
2026-05-05 20:57 29.23090 -83.03586 32050 ft 406 kts 322°
2026-05-05 20:57 29.25380 -83.05460 32495 ft 404 kts 321°
2026-05-05 20:57 29.27660 -83.07327 32940 ft 401 kts 321°
2026-05-05 20:58 29.29925 -83.09183 33393 ft 399 kts 321°
2026-05-05 20:58 29.32174 -83.11027 33843 ft 396 kts 321°
2026-05-05 20:58 29.34408 -83.12860 34260 ft 394 kts 321°
2026-05-05 20:58 29.36626 -83.14681 34672 ft 391 kts 321°
2026-05-05 20:59 29.38832 -83.16493 35034 ft 389 kts 321°
2026-05-05 20:59 29.41021 -83.18292 35388 ft 387 kts 321°
2026-05-05 20:59 29.43204 -83.20087 35726 ft 385 kts 320°
2026-05-05 20:59 29.45375 -83.21872 35999 ft 384 kts 320°
2026-05-05 21:00 29.49678 -83.25415 36042 ft 377 kts 320°
2026-05-05 21:00 29.53943 -83.28930 36042 ft 378 kts 320°
2026-05-05 21:01 29.58212 -83.32452 36042 ft 378 kts 320°
2026-05-05 21:01 29.62483 -83.35979 36043 ft 378 kts 320°
2026-05-05 21:02 29.66752 -83.39509 36073 ft 378 kts 320°
2026-05-05 21:02 29.70998 -83.43024 36040 ft 375 kts 320°
2026-05-05 21:03 29.75239 -83.46537 36044 ft 376 kts 320°
2026-05-05 21:03 29.79481 -83.50056 36048 ft 376 kts 320°
2026-05-05 21:04 29.83722 -83.53576 36039 ft 376 kts 320°
2026-05-05 21:04 29.87959 -83.57097 36050 ft 376 kts 320°
2026-05-05 21:05 29.92204 -83.60627 36053 ft 376 kts 320°
2026-05-05 21:05 29.96443 -83.64156 36080 ft 376 kts 320°
2026-05-05 21:06 30.00666 -83.67675 36054 ft 373 kts 320°
2026-05-05 21:06 30.04879 -83.71190 36055 ft 374 kts 320°
2026-05-05 21:07 30.09096 -83.74711 36052 ft 374 kts 320°
2026-05-05 21:07 30.13313 -83.78237 36050 ft 374 kts 320°
2026-05-05 21:08 30.17489 -83.81817 36041 ft 371 kts 314°
2026-05-05 21:08 30.21099 -83.86058 36041 ft 370 kts 312°
2026-05-05 21:09 30.24705 -83.90313 36045 ft 371 kts 312°
2026-05-05 21:09 30.28305 -83.94580 36057 ft 369 kts 312°
2026-05-05 21:10 30.31885 -83.98828 36049 ft 369 kts 311°
2026-05-05 21:10 30.34906 -84.02417 36046 ft 369 kts 311°
2026-05-05 21:11 30.38440 -84.06621 36047 ft 369 kts 311°
2026-05-05 21:11 30.42018 -84.10882 36043 ft 369 kts 311°
2026-05-05 21:12 30.45594 -84.15144 36047 ft 369 kts 311°
2026-05-05 21:12 30.49172 -84.19414 36039 ft 369 kts 311°
2026-05-05 21:13 30.52747 -84.23685 36038 ft 369 kts 311°
2026-05-05 21:13 30.56320 -84.27958 36038 ft 369 kts 311°
2026-05-05 21:14 30.59896 -84.32240 36040 ft 370 kts 311°
2026-05-05 21:14 30.63480 -84.36536 36036 ft 370 kts 311°
2026-05-05 21:15 30.67060 -84.40832 36036 ft 370 kts 311°
2026-05-05 21:15 30.70640 -84.45133 36035 ft 370 kts 311°
2026-05-05 21:16 30.74218 -84.49438 36039 ft 370 kts 311°
2026-05-05 21:16 30.77794 -84.53744 36035 ft 370 kts 311°
2026-05-05 21:17 30.81369 -84.58053 36034 ft 370 kts 311°
2026-05-05 21:17 30.84942 -84.62367 36054 ft 370 kts 311°
2026-05-05 21:18 30.88500 -84.66666 36035 ft 368 kts 311°
2026-05-05 21:18 30.92058 -84.70970 36029 ft 369 kts 311°
2026-05-05 21:19 30.95619 -84.75283 36036 ft 369 kts 311°
2026-05-05 21:19 30.99179 -84.79599 36034 ft 369 kts 311°
2026-05-05 21:20 31.02738 -84.83919 36032 ft 369 kts 311°
2026-05-05 21:20 31.06295 -84.88242 36035 ft 369 kts 311°
2026-05-05 21:21 31.09850 -84.92568 36030 ft 369 kts 311°
2026-05-05 21:21 31.13382 -84.96869 36031 ft 369 kts 311°
2026-05-05 21:22 31.16926 -85.01191 36045 ft 367 kts 311°
2026-05-05 21:22 31.20451 -85.05495 36020 ft 367 kts 310°
2026-05-05 21:23 31.23985 -85.09815 36038 ft 369 kts 310°
2026-05-05 21:23 31.27525 -85.14147 36035 ft 368 kts 310°
2026-05-05 21:24 31.31064 -85.18483 36036 ft 369 kts 310°
2026-05-05 21:24 31.34604 -85.22825 36037 ft 369 kts 310°
2026-05-05 21:25 31.38143 -85.27171 36042 ft 369 kts 310°
2026-05-05 21:25 31.41678 -85.31517 36053 ft 369 kts 310°
2026-05-05 21:26 31.45212 -85.35867 36075 ft 368 kts 310°
2026-05-05 21:26 31.48722 -85.40192 36052 ft 366 kts 310°
2026-05-05 21:27 31.52230 -85.44520 36034 ft 366 kts 310°
2026-05-05 21:27 31.55739 -85.48855 36028 ft 367 kts 310°
2026-05-05 21:28 31.59247 -85.53193 36002 ft 366 kts 310°
2026-05-05 21:28 31.62753 -85.57534 35996 ft 366 kts 310°
2026-05-05 21:29 31.66258 -85.61879 36003 ft 366 kts 310°
2026-05-05 21:29 31.69760 -85.66225 36006 ft 367 kts 310°
2026-05-05 21:30 31.73267 -85.70582 36029 ft 366 kts 310°
2026-05-05 21:30 31.76761 -85.74928 36012 ft 365 kts 310°
2026-05-05 21:31 31.80249 -85.79272 36020 ft 366 kts 310°
2026-05-05 21:31 31.83742 -85.83628 36012 ft 366 kts 310°
2026-05-05 21:32 31.87233 -85.87985 36018 ft 366 kts 310°
2026-05-05 21:32 31.90723 -85.92347 36012 ft 366 kts 310°
2026-05-05 21:33 31.94210 -85.96710 36016 ft 366 kts 310°
2026-05-05 21:33 31.97696 -86.01078 36016 ft 366 kts 310°
2026-05-05 21:34 32.01179 -86.05446 36010 ft 366 kts 310°
2026-05-05 21:34 32.04655 -86.09810 36012 ft 364 kts 310°
2026-05-05 21:35 32.08127 -86.14173 36007 ft 365 kts 310°
2026-05-05 21:35 32.11596 -86.18539 35996 ft 365 kts 309°
2026-05-05 21:36 32.15073 -86.22919 35988 ft 365 kts 309°
2026-05-05 21:36 32.18543 -86.27296 35987 ft 365 kts 309°
2026-05-05 21:37 32.21989 -86.31651 35991 ft 365 kts 309°
2026-05-05 21:37 32.25443 -86.36048 35991 ft 365 kts 309°
2026-05-05 21:38 32.28902 -86.40448 35990 ft 365 kts 309°
2026-05-05 21:38 32.32357 -86.44848 35998 ft 364 kts 309°
2026-05-05 21:39 32.35796 -86.49234 35972 ft 364 kts 309°
2026-05-05 21:39 32.39239 -86.53629 35962 ft 364 kts 309°
2026-05-05 21:40 32.42680 -86.58028 35951 ft 365 kts 309°
2026-05-05 21:40 32.46136 -86.62451 35961 ft 366 kts 309°
2026-05-05 21:41 32.49587 -86.66872 35942 ft 366 kts 309°
2026-05-05 21:41 32.53038 -86.71299 35930 ft 366 kts 309°
2026-05-05 21:42 32.56490 -86.75733 35934 ft 366 kts 308°
2026-05-05 21:42 32.59935 -86.80164 35936 ft 364 kts 308°
2026-05-05 21:43 32.63366 -86.84580 35928 ft 364 kts 308°
2026-05-05 21:43 32.66796 -86.89003 35929 ft 364 kts 308°
2026-05-05 21:44 32.70225 -86.93428 35943 ft 364 kts 308°
2026-05-05 21:44 32.73654 -86.97859 35955 ft 365 kts 308°
2026-05-05 21:45 32.77097 -87.02315 35940 ft 366 kts 308°
2026-05-05 21:45 32.80538 -87.06772 35952 ft 366 kts 308°
2026-05-05 21:46 32.83974 -87.11228 35963 ft 366 kts 308°
2026-05-05 21:46 32.87408 -87.15688 35971 ft 365 kts 308°
2026-05-05 21:47 32.90825 -87.20131 35969 ft 364 kts 308°
2026-05-05 21:47 32.94244 -87.24582 35970 ft 364 kts 308°
2026-05-05 21:48 32.97662 -87.29037 35983 ft 365 kts 308°
2026-05-05 21:48 33.01080 -87.33498 35979 ft 365 kts 308°
2026-05-05 21:49 33.04502 -87.37969 35953 ft 365 kts 308°
2026-05-05 21:49 33.07921 -87.42442 35944 ft 365 kts 307°
2026-05-05 21:50 33.11340 -87.46921 35943 ft 365 kts 307°
2026-05-05 21:50 33.14757 -87.51403 35960 ft 365 kts 307°
2026-05-05 21:51 33.18157 -87.55868 35943 ft 363 kts 307°
2026-05-05 21:51 33.21554 -87.60334 35939 ft 363 kts 307°
2026-05-05 21:52 33.26623 -87.67008 35938 ft 363 kts 307°
2026-05-05 21:53 33.30016 -87.71481 35911 ft 363 kts 307°
2026-05-05 21:53 33.33391 -87.76007 35925 ft 365 kts 306°
2026-05-05 21:54 33.36736 -87.80573 35922 ft 365 kts 306°
2026-05-05 21:54 33.40082 -87.85139 35922 ft 365 kts 306°
2026-05-05 21:55 33.43426 -87.89707 35926 ft 365 kts 306°
2026-05-05 21:55 33.46767 -87.94277 35921 ft 365 kts 306°
2026-05-05 21:56 33.50109 -87.98854 35915 ft 365 kts 306°
2026-05-05 21:56 33.52910 -88.02694 35912 ft 365 kts 306°
2026-05-05 21:57 33.56251 -88.07281 35910 ft 365 kts 306°
2026-05-05 21:57 33.59564 -88.11835 35912 ft 366 kts 306°
2026-05-05 21:58 33.62919 -88.16452 35906 ft 367 kts 306°
2026-05-05 21:58 33.66270 -88.21069 35902 ft 367 kts 306°
2026-05-05 21:59 33.69612 -88.25681 35907 ft 365 kts 306°
2026-05-05 21:59 33.72940 -88.30280 35902 ft 365 kts 306°
2026-05-05 22:00 33.76266 -88.34880 35899 ft 365 kts 306°
2026-05-05 22:00 33.79593 -88.39489 35898 ft 365 kts 306°
2026-05-05 22:01 33.82917 -88.44100 35900 ft 365 kts 306°
2026-05-05 22:01 33.86240 -88.48714 35902 ft 365 kts 305°
2026-05-05 22:02 33.89576 -88.53352 35900 ft 366 kts 305°
2026-05-05 22:02 33.92907 -88.57991 35906 ft 366 kts 305°
2026-05-05 22:03 33.96235 -88.62631 35938 ft 365 kts 305°
2026-05-05 22:03 33.99545 -88.67252 35914 ft 364 kts 305°
2026-05-05 22:04 34.02852 -88.71874 35907 ft 364 kts 305°
2026-05-05 22:04 34.06160 -88.76504 35907 ft 364 kts 305°
2026-05-05 22:05 34.09466 -88.81138 35908 ft 364 kts 305°
2026-05-05 22:05 34.12771 -88.85775 35900 ft 364 kts 304°
2026-05-05 22:06 34.16081 -88.90427 35903 ft 366 kts 305°
2026-05-05 22:06 34.19395 -88.95089 35905 ft 366 kts 304°
2026-05-05 22:07 34.22707 -88.99756 35930 ft 365 kts 304°
2026-05-05 22:07 34.26000 -89.04401 35901 ft 364 kts 304°
2026-05-05 22:08 34.29292 -89.09050 35884 ft 364 kts 304°
2026-05-05 22:08 34.32581 -89.13703 35881 ft 364 kts 304°
2026-05-05 22:09 34.35869 -89.18359 35893 ft 364 kts 304°
2026-05-05 22:09 34.39158 -89.23024 35886 ft 364 kts 304°
2026-05-05 22:10 34.42445 -89.27691 35888 ft 364 kts 304°
2026-05-05 22:10 34.45732 -89.32365 35884 ft 365 kts 304°
2026-05-05 22:11 34.49017 -89.37043 35888 ft 364 kts 304°
2026-05-05 22:11 34.52295 -89.41716 35872 ft 364 kts 304°
2026-05-05 22:12 34.55571 -89.46393 35869 ft 364 kts 304°
2026-05-05 22:12 34.58842 -89.51069 35868 ft 364 kts 303°
2026-05-05 22:13 34.62117 -89.55757 35864 ft 364 kts 303°
2026-05-05 22:13 34.65394 -89.60454 35857 ft 364 kts 303°
2026-05-05 22:14 34.68660 -89.65143 35859 ft 364 kts 303°
2026-05-05 22:14 34.71928 -89.69838 35847 ft 364 kts 303°
2026-05-05 22:15 34.75168 -89.74501 35871 ft 363 kts 303°
2026-05-05 22:15 34.78434 -89.79208 35849 ft 362 kts 303°
2026-05-05 22:16 34.81678 -89.83889 35843 ft 362 kts 303°
2026-05-05 22:16 34.84924 -89.88579 35843 ft 362 kts 303°
2026-05-05 22:17 34.88144 -89.93237 35845 ft 362 kts 303°
2026-05-05 22:17 34.91404 -89.97960 35833 ft 362 kts 303°
2026-05-05 22:18 34.94627 -90.02637 35828 ft 364 kts 303°
2026-05-05 22:18 34.97882 -90.07365 35825 ft 364 kts 303°
2026-05-05 22:19 35.01128 -90.12088 35845 ft 363 kts 303°
2026-05-05 22:19 35.04381 -90.16825 35824 ft 362 kts 303°
2026-05-05 22:20 35.07611 -90.21537 35821 ft 362 kts 303°
2026-05-05 22:20 35.10842 -90.26256 35824 ft 362 kts 303°
2026-05-05 22:21 35.14070 -90.30978 35823 ft 362 kts 303°
2026-05-05 22:21 35.17275 -90.35672 35817 ft 362 kts 303°
2026-05-05 22:22 35.20499 -90.40400 35817 ft 362 kts 302°
2026-05-05 22:22 35.23746 -90.45166 35820 ft 362 kts 302°
2026-05-05 22:23 35.26966 -90.49900 35821 ft 361 kts 302°
2026-05-05 22:23 35.30177 -90.54627 35817 ft 361 kts 302°
2026-05-05 22:24 35.33390 -90.59362 35806 ft 361 kts 302°
2026-05-05 22:24 35.36600 -90.64100 35816 ft 361 kts 302°
2026-05-05 22:25 35.39808 -90.68840 35809 ft 361 kts 302°
2026-05-05 22:25 35.42676 -90.73793 35825 ft 351 kts 291°
2026-05-05 22:26 35.44886 -90.79156 35818 ft 352 kts 292°
2026-05-05 22:26 35.47078 -90.84535 35815 ft 352 kts 291°
2026-05-05 22:27 35.49254 -90.89921 35815 ft 352 kts 291°
2026-05-05 22:27 35.51425 -90.95311 35822 ft 352 kts 291°
2026-05-05 22:28 35.53590 -91.00692 35819 ft 352 kts 291°
2026-05-05 22:28 35.55754 -91.06083 35818 ft 352 kts 291°
2026-05-05 22:29 35.57915 -91.11474 35821 ft 352 kts 291°
2026-05-05 22:29 35.60074 -91.16870 35823 ft 352 kts 291°
2026-05-05 22:30 35.62234 -91.22276 35820 ft 352 kts 291°
2026-05-05 22:30 35.64390 -91.27681 35816 ft 352 kts 291°
2026-05-05 22:31 35.66542 -91.33087 35805 ft 352 kts 291°
2026-05-05 22:31 35.68694 -91.38502 35800 ft 352 kts 291°
2026-05-05 22:32 35.70843 -91.43917 35802 ft 352 kts 291°
2026-05-05 22:32 35.72992 -91.49341 35806 ft 352 kts 291°
2026-05-05 22:33 35.75136 -91.54761 35833 ft 353 kts 290°
2026-05-05 22:33 35.77281 -91.60192 35806 ft 352 kts 290°
2026-05-05 22:34 35.79423 -91.65627 35804 ft 353 kts 290°
2026-05-05 22:34 35.81564 -91.71064 35806 ft 353 kts 290°
2026-05-05 22:35 35.83702 -91.76507 35799 ft 353 kts 290°
2026-05-05 22:35 35.85835 -91.81947 35796 ft 353 kts 290°
2026-05-05 22:36 35.87968 -91.87394 35771 ft 353 kts 290°
2026-05-05 22:36 35.90099 -91.92846 35777 ft 353 kts 290°
2026-05-05 22:37 35.91868 -91.97377 35775 ft 353 kts 290°
2026-05-05 22:37 35.93994 -92.02834 35775 ft 353 kts 290°
2026-05-05 22:38 35.96118 -92.08293 35772 ft 353 kts 290°
2026-05-05 22:38 35.98243 -92.13755 35870 ft 351 kts 288°
2026-05-05 22:38 35.99337 -92.16463 35707 ft 353 kts 293°
2026-05-05 22:39 36.00410 -92.19174 35753 ft 353 kts 289°
2026-05-05 22:39 36.02480 -92.24664 35768 ft 354 kts 289°
2026-05-05 22:40 36.04589 -92.30156 35743 ft 353 kts 290°
2026-05-05 22:40 36.06707 -92.35652 35780 ft 355 kts 290°
2026-05-05 22:41 36.08828 -92.41161 35792 ft 355 kts 290°
2026-05-05 22:41 36.10894 -92.46688 35843 ft 353 kts 291°
2026-05-05 22:41 36.12426 -92.49156 35697 ft 365 kts 302°
2026-05-05 22:42 36.13717 -92.51742 35919 ft 351 kts 286°
2026-05-05 22:42 36.15289 -92.57457 35824 ft 353 kts 288°
2026-05-05 22:43 36.17272 -92.63036 35821 ft 355 kts 289°
2026-05-05 22:43 36.19343 -92.68581 35816 ft 355 kts 289°
2026-05-05 22:44 36.21445 -92.74124 35834 ft 356 kts 289°
2026-05-05 22:44 36.23804 -92.79537 35643 ft 377 kts 314°
2026-05-05 22:44 36.26331 -92.80685 36158 ft 389 kts 332°
2026-05-05 22:45 36.28847 -92.81679 36307 ft 370 kts 318°
2026-05-05 22:45 36.30865 -92.83510 36084 ft 354 kts 302°
2026-05-05 22:45 36.32171 -92.86019 35883 ft 343 kts 285°
2026-05-05 22:45 36.32615 -92.88872 35789 ft 337 kts 268°
2026-05-05 22:46 36.32419 -92.91778 35820 ft 342 kts 266°
2026-05-05 22:46 36.32357 -92.97732 35834 ft 348 kts 271°
2026-05-05 22:47 36.33274 -93.03623 35850 ft 352 kts 283°
2026-05-05 22:47 36.34974 -93.09338 35849 ft 354 kts 287°
2026-05-05 22:48 36.36945 -93.14955 35844 ft 355 kts 288°
2026-05-05 22:48 36.38996 -93.20534 35840 ft 356 kts 288°
2026-05-05 22:49 36.41074 -93.26104 35854 ft 356 kts 288°
2026-05-05 22:49 36.43154 -93.31666 35848 ft 355 kts 288°
2026-05-05 22:50 36.45233 -93.37232 35852 ft 355 kts 288°
2026-05-05 22:50 36.47307 -93.42795 35852 ft 354 kts 288°
2026-05-05 22:51 36.49373 -93.48345 35837 ft 354 kts 288°
2026-05-05 22:51 36.51423 -93.53864 35834 ft 354 kts 288°
2026-05-05 22:52 36.53483 -93.59417 35848 ft 354 kts 288°
2026-05-05 22:52 36.55541 -93.64977 35839 ft 354 kts 288°
2026-05-05 22:53 36.57595 -93.70535 35844 ft 354 kts 288°
2026-05-05 22:53 36.59646 -93.76095 35843 ft 354 kts 288°
2026-05-05 22:54 36.61696 -93.81663 35856 ft 353 kts 287°
2026-05-05 22:54 36.63738 -93.87218 35859 ft 353 kts 287°
2026-05-05 22:55 36.65779 -93.92781 35861 ft 353 kts 287°
2026-05-05 22:55 36.67813 -93.98336 35869 ft 353 kts 287°
2026-05-05 22:56 36.69845 -94.03894 35883 ft 351 kts 287°
2026-05-05 22:56 36.71869 -94.09436 35874 ft 351 kts 287°
2026-05-05 22:57 36.73889 -94.14980 35872 ft 351 kts 287°
2026-05-05 22:57 36.75909 -94.20529 35875 ft 351 kts 287°
2026-05-05 22:58 36.77927 -94.26084 35876 ft 351 kts 287°
2026-05-05 22:58 36.79940 -94.31637 35880 ft 351 kts 287°
2026-05-05 22:59 36.81951 -94.37192 35877 ft 351 kts 287°
2026-05-05 22:59 36.83955 -94.42748 35882 ft 350 kts 285°
2026-05-05 23:00 36.86497 -94.51243 35899 ft 348 kts 284°
2026-05-05 23:00 36.88205 -94.56902 35894 ft 348 kts 284°
2026-05-05 23:01 36.89914 -94.62561 35897 ft 348 kts 284°
2026-05-05 23:01 36.91620 -94.68220 35903 ft 348 kts 283°
2026-05-05 23:02 36.93324 -94.73882 35908 ft 348 kts 283°
2026-05-05 23:02 36.95026 -94.79551 35907 ft 348 kts 283°
2026-05-05 23:03 36.96725 -94.85222 35908 ft 348 kts 283°
2026-05-05 23:03 36.98422 -94.90898 35905 ft 348 kts 283°
2026-05-05 23:04 37.00104 -94.96535 35903 ft 348 kts 283°
2026-05-05 23:04 37.01799 -95.02223 35904 ft 349 kts 283°
2026-05-05 23:05 37.03491 -95.07919 35908 ft 349 kts 283°
2026-05-05 23:05 37.05180 -95.13610 35907 ft 349 kts 283°
2026-05-05 23:06 37.06866 -95.19309 35906 ft 349 kts 283°
2026-05-05 23:06 37.08551 -95.25011 35912 ft 349 kts 283°
2026-05-05 23:07 37.10232 -95.30714 35915 ft 349 kts 283°
2026-05-05 23:07 37.11910 -95.36419 35963 ft 350 kts 283°
2026-05-05 23:08 37.13589 -95.42138 35925 ft 349 kts 283°
2026-05-05 23:08 37.15266 -95.47865 35926 ft 350 kts 283°
2026-05-05 23:09 37.16940 -95.53591 35925 ft 350 kts 283°
2026-05-05 23:09 37.18612 -95.59322 35923 ft 350 kts 283°
2026-05-05 23:10 37.20281 -95.65054 35940 ft 350 kts 283°
2026-05-05 23:10 37.21947 -95.70790 35943 ft 350 kts 283°
2026-05-05 23:11 37.23610 -95.76527 35945 ft 350 kts 282°
2026-05-05 23:11 37.25268 -95.82258 35941 ft 350 kts 282°
2026-05-05 23:12 37.26926 -95.88001 35933 ft 350 kts 282°
2026-05-05 23:12 37.28580 -95.93743 35934 ft 349 kts 282°
2026-05-05 23:13 37.30229 -95.99480 35943 ft 350 kts 282°
2026-05-05 23:13 37.31878 -96.05227 35942 ft 350 kts 282°
2026-05-05 23:14 37.33520 -96.10964 35952 ft 348 kts 282°
2026-05-05 23:14 37.35155 -96.16688 35949 ft 349 kts 282°
2026-05-05 23:15 37.36790 -96.22426 35950 ft 349 kts 282°
2026-05-05 23:15 37.38424 -96.28169 35953 ft 348 kts 282°
2026-05-05 23:16 37.40050 -96.33899 35952 ft 348 kts 282°
2026-05-05 23:16 37.41678 -96.39648 35952 ft 348 kts 282°
2026-05-05 23:17 37.43313 -96.45434 35948 ft 349 kts 282°
2026-05-05 23:17 37.44934 -96.51185 35950 ft 349 kts 281°
2026-05-05 23:18 37.46544 -96.56906 35954 ft 349 kts 281°
2026-05-05 23:18 37.48162 -96.62667 35949 ft 349 kts 281°
2026-05-05 23:19 37.49777 -96.68431 35958 ft 349 kts 281°
2026-05-05 23:19 37.51389 -96.74198 35959 ft 349 kts 281°
2026-05-05 23:20 37.52998 -96.79965 35985 ft 350 kts 281°
2026-05-05 23:20 37.54609 -96.85757 35967 ft 351 kts 281°
2026-05-05 23:21 37.55962 -96.90624 35961 ft 351 kts 281°
2026-05-05 23:21 37.57562 -96.96398 35965 ft 351 kts 281°
2026-05-05 23:22 37.59170 -97.02208 35958 ft 351 kts 281°
2026-05-05 23:22 37.60774 -97.08021 35961 ft 351 kts 281°
2026-05-05 23:23 37.62375 -97.13836 35961 ft 351 kts 281°
2026-05-05 23:23 37.63974 -97.19655 35957 ft 351 kts 281°
2026-05-05 23:24 37.65570 -97.25473 35953 ft 351 kts 281°
2026-05-05 23:24 37.67164 -97.31296 35957 ft 351 kts 281°
2026-05-05 23:25 37.68755 -97.37119 35951 ft 351 kts 281°
2026-05-05 23:25 37.70344 -97.42947 35955 ft 351 kts 281°
2026-05-05 23:26 37.71929 -97.48773 36006 ft 351 kts 281°
2026-05-05 23:26 37.73514 -97.54613 35961 ft 352 kts 281°
2026-05-05 23:27 37.75135 -97.60455 35949 ft 353 kts 281°
2026-05-05 23:27 37.76796 -97.66306 35952 ft 354 kts 281°
2026-05-05 23:28 37.78453 -97.72158 35952 ft 354 kts 281°
2026-05-05 23:28 37.80109 -97.78017 35955 ft 354 kts 281°
2026-05-05 23:29 37.81760 -97.83876 35952 ft 354 kts 281°
2026-05-05 23:29 37.83409 -97.89738 35947 ft 354 kts 281°
2026-05-05 23:30 37.85053 -97.95594 35951 ft 353 kts 281°
2026-05-05 23:30 37.86698 -98.01467 35951 ft 355 kts 281°
2026-05-05 23:31 37.88342 -98.07352 35949 ft 355 kts 281°
2026-05-05 23:31 37.89984 -98.13241 35949 ft 355 kts 281°
2026-05-05 23:32 37.91622 -98.19132 35990 ft 355 kts 280°
2026-05-05 23:32 37.93257 -98.25022 35966 ft 355 kts 280°
2026-05-05 23:33 37.94891 -98.30920 35959 ft 355 kts 280°
2026-05-05 23:33 37.96522 -98.36822 35968 ft 355 kts 280°
2026-05-05 23:34 37.98154 -98.42743 35963 ft 356 kts 280°
2026-05-05 23:34 37.99785 -98.48673 35970 ft 356 kts 280°
2026-05-05 23:35 38.01412 -98.54602 35972 ft 356 kts 280°
2026-05-05 23:35 38.03036 -98.60533 35970 ft 356 kts 280°
2026-05-05 23:36 38.04657 -98.66465 35983 ft 356 kts 280°
2026-05-05 23:36 38.06275 -98.72401 36000 ft 356 kts 279°
2026-05-05 23:37 38.07891 -98.78345 35996 ft 357 kts 279°
2026-05-05 23:37 38.09505 -98.84293 35987 ft 357 kts 279°
2026-05-05 23:38 38.11116 -98.90245 35986 ft 356 kts 279°
2026-05-05 23:38 38.12726 -98.96204 35990 ft 356 kts 279°
2026-05-05 23:39 38.14330 -99.02158 35986 ft 356 kts 279°
2026-05-05 23:39 38.15932 -99.08117 35989 ft 357 kts 279°
2026-05-05 23:40 38.17533 -99.14086 35992 ft 357 kts 279°
2026-05-05 23:40 38.19131 -99.20059 35989 ft 357 kts 279°
2026-05-05 23:41 38.20726 -99.26034 35988 ft 357 kts 279°
2026-05-05 23:41 38.22319 -99.32015 35991 ft 357 kts 279°
2026-05-05 23:42 38.23908 -99.37993 35993 ft 357 kts 279°
2026-05-05 23:42 38.25495 -99.43981 35988 ft 357 kts 279°
2026-05-05 23:43 38.27077 -99.49963 36020 ft 357 kts 279°
2026-05-05 23:43 38.28655 -99.55945 35995 ft 356 kts 279°
2026-05-05 23:44 38.30229 -99.61925 35993 ft 356 kts 279°
2026-05-05 23:44 38.31799 -99.67901 35993 ft 356 kts 279°
2026-05-05 23:45 38.33367 -99.73889 35988 ft 356 kts 279°
2026-05-05 23:45 38.34931 -99.79871 35986 ft 356 kts 279°
2026-05-05 23:46 38.36492 -99.85859 35991 ft 356 kts 278°
2026-05-05 23:46 38.38050 -99.91847 35984 ft 356 kts 278°
2026-05-05 23:47 38.39607 -99.97850 35984 ft 356 kts 278°
2026-05-05 23:47 38.41160 -100.03846 35985 ft 356 kts 278°
2026-05-05 23:48 38.42711 -100.09851 35990 ft 356 kts 278°
2026-05-05 23:48 38.44257 -100.15852 35989 ft 356 kts 278°
2026-05-05 23:49 38.45800 -100.21860 36011 ft 357 kts 278°
2026-05-05 23:49 38.47349 -100.27900 35994 ft 359 kts 278°
2026-05-05 23:50 38.48896 -100.33948 35992 ft 358 kts 278°
2026-05-05 23:50 38.50440 -100.39999 35986 ft 358 kts 278°
2026-05-05 23:51 38.51980 -100.46050 35998 ft 358 kts 278°
2026-05-05 23:51 38.53519 -100.52110 36001 ft 358 kts 278°
2026-05-05 23:52 38.55053 -100.58167 36014 ft 358 kts 278°
2026-05-05 23:52 38.56584 -100.64230 36014 ft 359 kts 278°
2026-05-05 23:53 38.58114 -100.70298 36015 ft 359 kts 278°
2026-05-05 23:53 38.59640 -100.76368 36017 ft 359 kts 278°
2026-05-05 23:54 38.61162 -100.82438 36019 ft 358 kts 278°
2026-05-05 23:54 38.62681 -100.88510 36043 ft 360 kts 278°
2026-05-05 23:55 38.64203 -100.94611 36004 ft 360 kts 278°
2026-05-05 23:55 38.65723 -101.00716 36001 ft 360 kts 278°
2026-05-05 23:56 38.67239 -101.06825 35974 ft 360 kts 278°
2026-05-05 23:56 38.68751 -101.12931 35976 ft 360 kts 278°
2026-05-05 23:57 38.70261 -101.19039 35977 ft 360 kts 278°
2026-05-05 23:57 38.71765 -101.25145 35970 ft 360 kts 278°
2026-05-05 23:58 38.73268 -101.31261 35961 ft 360 kts 278°
2026-05-05 23:58 38.74762 -101.37351 35967 ft 361 kts 278°
2026-05-05 23:59 38.76263 -101.43484 35971 ft 361 kts 278°
2026-05-05 23:59 38.77763 -101.49626 35969 ft 361 kts 278°
2026-05-06 00:00 38.79268 -101.55810 35982 ft 362 kts 278°
2026-05-06 00:00 38.80756 -101.61931 35976 ft 362 kts 278°
2026-05-06 00:01 38.82261 -101.68139 35988 ft 362 kts 278°
2026-05-06 00:01 38.83506 -101.73290 35978 ft 364 kts 278°
2026-05-06 00:02 38.84840 -101.80432 35965 ft 349 kts 264°
2026-05-06 00:02 38.84853 -101.85663 35960 ft 351 kts 265°
2026-05-06 00:03 38.84834 -101.91925 35964 ft 351 kts 264°
2026-05-06 00:03 38.84776 -101.98179 35966 ft 351 kts 264°
2026-05-06 00:04 38.84705 -102.04432 35981 ft 351 kts 264°
2026-05-06 00:04 38.84630 -102.10697 35968 ft 352 kts 264°
2026-05-06 00:05 38.84511 -102.20126 35961 ft 352 kts 264°
2026-05-06 00:06 38.84694 -102.26411 35956 ft 361 kts 276°
2026-05-06 00:06 38.85990 -102.32627 35966 ft 363 kts 277°
2026-05-06 00:07 38.87322 -102.38886 35957 ft 364 kts 277°
2026-05-06 00:07 38.88687 -102.45181 35963 ft 364 kts 277°
2026-05-06 00:08 38.90046 -102.51438 35966 ft 364 kts 277°
2026-05-06 00:08 38.91792 -102.57599 35956 ft 387 kts 293°
2026-05-06 00:09 38.94457 -102.63504 36003 ft 370 kts 275°
2026-05-06 00:09 38.94635 -102.66733 35971 ft 358 kts 262°
2026-05-06 00:09 38.94634 -102.69947 35932 ft 366 kts 272°
2026-05-06 00:10 38.95616 -102.76414 35965 ft 371 kts 276°
2026-05-06 00:10 38.96875 -102.82884 35946 ft 376 kts 277°
2026-05-06 00:11 38.98231 -102.89409 35975 ft 378 kts 278°
2026-05-06 00:11 38.99617 -102.95920 35969 ft 378 kts 278°
2026-05-06 00:11 39.00310 -102.99162 35488 ft 373 kts 278°
2026-05-06 00:12 39.00996 -103.02379 34887 ft 371 kts 278°
2026-05-06 00:12 39.01674 -103.05563 34309 ft 369 kts 278°
2026-05-06 00:12 39.02350 -103.08737 33656 ft 367 kts 278°
2026-05-06 00:12 39.03022 -103.11896 32953 ft 366 kts 278°
2026-05-06 00:13 39.03742 -103.15026 32273 ft 370 kts 286°
2026-05-06 00:13 39.05114 -103.17950 31436 ft 392 kts 297°
2026-05-06 00:13 39.06447 -103.21009 30639 ft 395 kts 288°
2026-05-06 00:13 39.07616 -103.24265 29798 ft 407 kts 291°
2026-05-06 00:14 39.08925 -103.27536 29069 ft 414 kts 293°
2026-05-06 00:14 39.10341 -103.30794 28278 ft 418 kts 295°
2026-05-06 00:14 39.11813 -103.34036 27431 ft 421 kts 296°
2026-05-06 00:14 39.13319 -103.37289 26578 ft 425 kts 296°
2026-05-06 00:15 39.14855 -103.40572 25918 ft 429 kts 296°
2026-05-06 00:15 39.16403 -103.43859 25239 ft 430 kts 297°
2026-05-06 00:15 39.17956 -103.47155 24560 ft 429 kts 297°
2026-05-06 00:15 39.19499 -103.50428 23882 ft 426 kts 297°
2026-05-06 00:16 39.21029 -103.53679 23144 ft 420 kts 297°
2026-05-06 00:16 39.22514 -103.56840 22891 ft 404 kts 297°
2026-05-06 00:16 39.23942 -103.59877 22683 ft 390 kts 297°
2026-05-06 00:16 39.25321 -103.62818 22445 ft 377 kts 297°
2026-05-06 00:17 39.26657 -103.65668 22244 ft 365 kts 297°
2026-05-06 00:17 39.27949 -103.68425 22047 ft 354 kts 297°
2026-05-06 00:17 39.29289 -103.71059 21706 ft 350 kts 300°
2026-05-06 00:17 39.30668 -103.73639 21312 ft 349 kts 300°
2026-05-06 00:18 39.32037 -103.76223 20943 ft 347 kts 300°
2026-05-06 00:18 39.33391 -103.78788 20547 ft 344 kts 300°
2026-05-06 00:18 39.34730 -103.81334 20161 ft 342 kts 300°
2026-05-06 00:18 39.36059 -103.83861 19763 ft 338 kts 300°
2026-05-06 00:19 39.37361 -103.86340 19372 ft 330 kts 299°
2026-05-06 00:19 39.38632 -103.88762 19020 ft 322 kts 299°
2026-05-06 00:19 39.39875 -103.91133 18647 ft 315 kts 299°
2026-05-06 00:19 39.41091 -103.93453 18276 ft 309 kts 299°
2026-05-06 00:20 39.42281 -103.95727 17889 ft 302 kts 299°
2026-05-06 00:20 39.43411 -103.97974 17480 ft 293 kts 292°
2026-05-06 00:20 39.43914 -104.00444 17099 ft 280 kts 271°
2026-05-06 00:20 39.43912 -104.02957 16778 ft 279 kts 269°
2026-05-06 00:21 39.43882 -104.05466 16452 ft 279 kts 268°
2026-05-06 00:21 39.43829 -104.07959 16106 ft 276 kts 267°
2026-05-06 00:21 39.43764 -104.10432 15784 ft 274 kts 267°
2026-05-06 00:21 39.43689 -104.12907 15462 ft 276 kts 267°
2026-05-06 00:22 39.43609 -104.15383 15139 ft 274 kts 266°
2026-05-06 00:22 39.43526 -104.17805 14809 ft 264 kts 266°
2026-05-06 00:22 39.43445 -104.20135 14518 ft 253 kts 266°
2026-05-06 00:22 39.43366 -104.22358 14206 ft 243 kts 266°
2026-05-06 00:23 39.43292 -104.24470 13962 ft 232 kts 266°
2026-05-06 00:23 39.43217 -104.26561 13654 ft 229 kts 266°
2026-05-06 00:23 39.43144 -104.28611 13353 ft 227 kts 266°
2026-05-06 00:23 39.43074 -104.30634 12943 ft 229 kts 266°
2026-05-06 00:24 39.42999 -104.32725 12627 ft 229 kts 266°
2026-05-06 00:24 39.42919 -104.34799 12366 ft 233 kts 266°
2026-05-06 00:24 39.42839 -104.36923 11886 ft 241 kts 266°
2026-05-06 00:24 39.42757 -104.39112 11457 ft 245 kts 265°
2026-05-06 00:25 39.42679 -104.41307 11190 ft 243 kts 265°
2026-05-06 00:25 39.42606 -104.43477 10984 ft 239 kts 265°
2026-05-06 00:25 39.42533 -104.45599 10951 ft 241 kts 265°
2026-05-06 00:25 39.42457 -104.47799 10850 ft 242 kts 265°
2026-05-06 00:26 39.42380 -104.49961 10521 ft 246 kts 264°
2026-05-06 00:26 39.42305 -104.52215 10163 ft 249 kts 265°
2026-05-06 00:26 39.42247 -104.54460 9857 ft 250 kts 265°
2026-05-06 00:26 39.42184 -104.56675 9570 ft 248 kts 266°
2026-05-06 00:27 39.42124 -104.58902 9336 ft 249 kts 266°
2026-05-06 00:27 39.42204 -104.61176 9417 ft 252 kts 275°
2026-05-06 00:27 39.42560 -104.63350 10343 ft 251 kts 293°
2026-05-06 00:27 39.43624 -104.65195 11020 ft 257 kts 319°
2026-05-06 00:28 39.45210 -104.66213 11217 ft 256 kts 346°
2026-05-06 00:28 39.46956 -104.66344 11385 ft 257 kts 359°
2026-05-06 00:28 39.48739 -104.66352 11523 ft 254 kts 356°
2026-05-06 00:28 39.50512 -104.66374 11494 ft 256 kts 357°
2026-05-06 00:29 39.52266 -104.66380 11374 ft 248 kts 358°
2026-05-06 00:29 39.53980 -104.66377 11094 ft 247 kts 358°
2026-05-06 00:29 39.55681 -104.66364 10744 ft 249 kts 359°
2026-05-06 00:29 39.57447 -104.66348 10367 ft 252 kts
2026-05-06 00:30 39.59197 -104.66328 10005 ft 250 kts
2026-05-06 00:30 39.60924 -104.66313 9607 ft 245 kts
2026-05-06 00:30 39.62587 -104.66292 9242 ft 239 kts
2026-05-06 00:30 39.64221 -104.66276 8962 ft 230 kts
2026-05-06 00:31 39.65805 -104.66257 8681 ft 221 kts
2026-05-06 00:31 39.67315 -104.66238 8405 ft 213 kts
2026-05-06 00:31 39.68765 -104.66219 8080 ft 204 kts
2026-05-06 00:31 39.70100 -104.66198 7825 ft 184 kts
2026-05-06 00:32 39.71342 -104.66185 7591 ft 176 kts
2026-05-06 00:32 39.72571 -104.66164 7369 ft 174 kts
2026-05-06 00:32 39.73757 -104.66155 7160 ft 172 kts
2026-05-06 00:32 39.74931 -104.66148 7053 ft 164 kts
2026-05-06 00:33 39.76055 -104.66136 7034 ft 160 kts
2026-05-06 00:33 39.77169 -104.66123 7009 ft 160 kts
2026-05-06 00:33 39.78278 -104.66083 6578 ft 159 kts
2026-05-06 00:33 39.79381 -104.66136 5893 ft 165 kts 359°
2026-05-06 00:34 39.80489 -104.66127 5607 ft 145 kts
2026-05-06 00:34 39.81492 -104.65963 5562 ft 147 kts
2026-05-06 00:34 39.82520 -104.65932 5677 ft 149 kts
2026-05-06 00:34 39.83566 -104.65981 5891 ft 152 kts 358°
2026-05-06 00:35 39.84620 -104.66062 6671 ft 144 kts
2026-05-06 00:35 39.85568 -104.66009 7443 ft 135 kts
2026-05-06 00:35 39.86582 -104.65932 7672 ft 153 kts
2026-05-06 00:35 39.87691 -104.66024 7577 ft 166 kts 357°
2026-05-06 00:36 39.88878 -104.66206 7495 ft 177 kts
2026-05-06 00:36 39.90120 -104.65907 7608 ft 190 kts 27°
2026-05-06 00:36 39.91097 -104.64698 7963 ft 206 kts 65°
2026-05-06 00:36 39.91381 -104.62816 8329 ft 221 kts 94°
2026-05-06 00:37 39.91202 -104.60801 8368 ft 226 kts 97°
2026-05-06 00:37 39.91004 -104.58752 8495 ft 229 kts 97°
2026-05-06 00:37 39.90817 -104.56695 8620 ft 229 kts 97°
2026-05-06 00:37 39.90636 -104.54642 8770 ft 228 kts 97°
2026-05-06 00:38 39.90461 -104.52584 8893 ft 230 kts 98°
2026-05-06 00:38 39.90247 -104.50518 8965 ft 231 kts 107°
2026-05-06 00:38 39.89448 -104.48760 8955 ft 227 kts 138°
2026-05-06 00:38 39.88052 -104.47834 8984 ft 229 kts 168°
2026-05-06 00:39 39.86451 -104.47704 9015 ft 232 kts 178°
2026-05-06 00:39 39.84837 -104.47689 9010 ft 232 kts 178°
2026-05-06 00:39 39.83242 -104.47666 9008 ft 232 kts 178°
2026-05-06 00:39 39.81605 -104.47639 9011 ft 233 kts 176°
2026-05-06 00:40 39.79979 -104.47619 9011 ft 233 kts 178°
2026-05-06 00:40 39.78362 -104.47614 9009 ft 233 kts 178°
2026-05-06 00:40 39.76745 -104.47581 9014 ft 233 kts 177°
2026-05-06 00:40 39.75119 -104.47537 9013 ft 233 kts 177°
2026-05-06 00:41 39.73501 -104.47512 9009 ft 232 kts 177°
2026-05-06 00:41 39.71890 -104.47490 8995 ft 232 kts 178°
2026-05-06 00:41 39.70305 -104.47469 9042 ft 224 kts 178°
2026-05-06 00:41 39.68750 -104.47432 9018 ft 223 kts 178°
2026-05-06 00:42 39.67208 -104.47414 8999 ft 220 kts 177°
2026-05-06 00:42 39.65673 -104.47398 9002 ft 221 kts 178°
2026-05-06 00:42 39.64156 -104.47376 8974 ft 215 kts 177°
2026-05-06 00:42 39.62699 -104.47352 9000 ft 211 kts 177°
2026-05-06 00:43 39.61214 -104.47342 8993 ft 210 kts 176°
2026-05-06 00:43 39.59773 -104.47328 8982 ft 210 kts 178°
2026-05-06 00:43 39.58292 -104.47304 8984 ft 211 kts 178°
2026-05-06 00:43 39.56841 -104.47277 8990 ft 211 kts 177°
2026-05-06 00:44 39.55853 -104.47271 8978 ft 211 kts 177°
2026-05-06 00:44 39.53912 -104.47283 8984 ft 210 kts 178°
2026-05-06 00:44 39.52445 -104.47287 8985 ft 211 kts 177°
2026-05-06 00:44 39.50980 -104.47283 8974 ft 210 kts 177°
2026-05-06 00:45 39.49521 -104.47283 8975 ft 210 kts 176°
2026-05-06 00:45 39.48535 -104.47288 8993 ft 209 kts 178°
2026-05-06 00:45 39.47076 -104.47300 8981 ft 210 kts 177°
2026-05-06 00:45 39.45626 -104.47310 8972 ft 211 kts 181°
2026-05-06 00:46 39.44281 -104.47895 8886 ft 211 kts 214°
2026-05-06 00:46 39.43451 -104.49389 8846 ft 205 kts 252°
2026-05-06 00:46 39.43486 -104.51212 8925 ft 208 kts 291°
2026-05-06 00:46 39.44350 -104.52681 9048 ft 208 kts 326°
2026-05-06 00:47 39.45614 -104.53596 9075 ft 208 kts 336°
2026-05-06 00:47 39.46899 -104.54394 9026 ft 210 kts 336°
2026-05-06 00:47 39.48228 -104.55210 8946 ft 211 kts 337°
2026-05-06 00:47 39.49540 -104.56016 8927 ft 206 kts 336°
2026-05-06 00:48 39.50826 -104.56817 8955 ft 205 kts 337°
2026-05-06 00:48 39.52114 -104.57613 8972 ft 205 kts 336°
2026-05-06 00:48 39.53406 -104.58415 8980 ft 206 kts 335°
2026-05-06 00:48 39.54700 -104.59209 8984 ft 205 kts 336°
2026-05-06 00:49 39.55986 -104.59990 8977 ft 204 kts 336°
2026-05-06 00:49 39.57281 -104.60753 8974 ft 204 kts 338°
2026-05-06 00:49 39.58564 -104.61527 8975 ft 203 kts 336°
2026-05-06 00:49 39.59846 -104.62293 8986 ft 202 kts 336°
2026-05-06 00:50 39.61124 -104.63062 8981 ft 203 kts 336°
2026-05-06 00:50 39.62407 -104.63840 8980 ft 203 kts 337°
2026-05-06 00:50 39.63692 -104.64604 8984 ft 202 kts 338°
2026-05-06 00:50 39.64992 -104.65272 8956 ft 199 kts 340°
2026-05-06 00:51 39.66285 -104.65915 8705 ft 198 kts 343°
2026-05-06 00:51 39.67621 -104.66236 8468 ft 194 kts
2026-05-06 00:51 39.68963 -104.66232 8226 ft 190 kts
2026-05-06 00:51 39.70223 -104.66210 7999 ft 175 kts
2026-05-06 00:52 39.71412 -104.66189 7784 ft 168 kts
2026-05-06 00:52 39.72568 -104.66175 7585 ft 166 kts
2026-05-06 00:52 39.73714 -104.66164 7350 ft 163 kts
2026-05-06 00:52 39.74841 -104.66155 7131 ft 162 kts
2026-05-06 00:53 39.75959 -104.66140 6920 ft 160 kts
2026-05-06 00:53 39.77066 -104.66122 6735 ft 158 kts
2026-05-06 00:53 39.78149 -104.66110 6513 ft 157 kts
2026-05-06 00:53 39.79247 -104.66097 6256 ft 155 kts
2026-05-06 00:54 39.80314 -104.66082 5999 ft 152 kts
2026-05-06 00:54 39.81372 -104.66073 5768 ft 153 kts
2026-05-06 00:54 39.82417 -104.66057 5574 ft 151 kts
2026-05-06 00:54 39.83420 -104.66052 5438 ft 131 kts
2026-05-06 00:55 39.84175 -104.66042 5414 ft 78 kts 360°
2026-05-06 00:55 39.84601 -104.66036 5414 ft 38 kts 359°
2026-05-06 00:55 39.84835 -104.66105 5413 ft 22 kts 334°
2026-05-06 00:55 39.84910 -104.66159 5403 ft 8 kts 332°
2026-05-06 00:56 39.84916 -104.66163 5404 ft 0 kts 332°
2026-05-06 00:58 39.84922 -104.66167 5403 ft 3 kts 331°
2026-05-06 00:58 39.84937 -104.66179 5408 ft 0 kts 329°
2026-05-06 00:58 39.84954 -104.66191 5404 ft 5 kts 329°
2026-05-06 00:58 39.85006 -104.66226 5400 ft 12 kts 342°
2026-05-06 00:59 39.85113 -104.66240 5394 ft 18 kts 360°
2026-05-06 00:59 39.85201 -104.66292 5393 ft 14 kts 291°
2026-05-06 00:59 39.85277 -104.66355 5393 ft 14 kts 359°
2026-05-06 00:59 39.85382 -104.66355 5394 ft 16 kts
2026-05-06 01:00 39.85497 -104.66351 5392 ft 18 kts
2026-05-06 01:00 39.85634 -104.66352 5390 ft 22 kts 359°
2026-05-06 01:00 39.85790 -104.66350 5388 ft 22 kts
2026-05-06 01:00 39.85944 -104.66348 5387 ft 23 kts 359°
2026-05-06 01:01 39.86066 -104.66346 5385 ft 11 kts
2026-05-06 01:01 39.86088 -104.66344 5384 ft 0 kts
2026-05-06 01:01 39.86098 -104.66348 5381 ft 4 kts 334°
2026-05-06 01:01 39.86105 -104.66399 5382 ft 11 kts 272°
2026-05-06 01:02 39.86158 -104.66511 5377 ft 13 kts 334°
2026-05-06 01:02 39.86184 -104.66610 5379 ft 13 kts 272°
2026-05-06 01:02 39.86184 -104.66735 5379 ft 15 kts 269°
2026-05-06 01:02 39.86184 -104.66877 5379 ft 16 kts 270°
2026-05-06 01:03 39.86183 -104.67031 5379 ft 16 kts 271°
2026-05-06 01:03 39.86208 -104.67094 5376 ft 6 kts 351°
2026-05-06 01:03 39.86238 -104.67095 5378 ft 2 kts 360°
2026-05-06 01:03 39.86248 -104.67095 5378 ft 1 kts
2026-05-06 01:04 39.86249 -104.67095 5378 ft 0 kts
2026-05-06 01:04 39.86251 -104.67095 5376 ft 0 kts